Regional Weather Roundup
Issued by NWS Huntsville, AL

Home | Current Version | Previous Version | Text Only | Print | Product List | Glossary On
Versions: 1 2 3 4 5 6 7 8 9 10 11 12 13 14 15 16 17 18 19 20 21 22 23 24 25 26 27 28 29 30 31 32 33 34 35 36 37 38 39 40 41 42 43 44 45 46 47 48 49 50
000
ASUS44 KHUN 131910
RWRHUN

WEATHER ROUNDUP FOR THE TENNESSEE VALLEY
NATIONAL WEATHER SERVICE HUNTSVILLE AL
100 PM CST SAT FEB 13 2016

ALZ001>004-132000-
NORTHWEST ALABAMA

CITY           SKY/WX    TMP DP  RH WIND       PRES   REMARKS
COURTLAND HCN    N/A     34 N/A N/A N6          N/A  WCI  29
RUSSELLVILLE     N/A     36 N/A N/A MISG        N/A
SHOALS AIRPORT SUNNY     36   5  27 N8        30.49F WCI  30
SHOALS TVA RES   N/A     34 N/A N/A MISG        N/A
$$

ALZ005>007-016-132000-
NORTH CENTRAL ALABAMA

CITY           SKY/WX    TMP DP  RH WIND       PRES   REMARKS
CULLMAN AG STN   N/A     36 N/A N/A MISG        N/A
DECATUR AP     SUNNY     35   8  32 N9        30.50S WCI  28
HUNTSVILLE AP  SUNNY     36   2  23 NE9       30.47F WCI  29
HUN NWS/UAH      N/A     33  -1  22 N9          N/A  WCI  26
MERIDIANVILLE  SUNNY     34  -6  18 N9G16     30.47F WCI  26
REDSTONE ARSN  SUNNY     35   4  27 NE13G21   30.46F WCI  26
VINEMONT AP    FAIR      34   5  29 N5        30.46S WCI  30
$$

ALZ008>010-132000-
NORTHEAST ALABAMA

CITY           SKY/WX    TMP DP  RH WIND       PRES   REMARKS
ALBERTVILLE    SUNNY     34  18  51 N9        30.41F WCI  26
FORT PAYNE     SUNNY     36   0  21 N5G21     30.41F WCI  32
SCOTTSBORO AP  SUNNY     37   3  23 NE10G16   30.44F WCI  30
SCOTTSBORO HCN   N/A     36 N/A N/A MISG        N/A
VALLEY HEAD      N/A     34 N/A N/A MISG        N/A
$$

TNZ076-096-097-132000-
SOUTHEASTERN MIDDLE TENNESSEE

CITY           SKY/WX    TMP DP  RH WIND       PRES   REMARKS
TULLAHOMA      SUNNY     28   0  29 N9        30.44F WCI  20
WINCHESTER     SUNNY     30   3  31 N12       30.44F WCI  21
$$

...SURROUNDING SITES...

CITY           SKY/WX    TMP DP  RH WIND       PRES   REMARKS
ATLANTA        SUNNY     40   4  22 N14       30.35F WCI  32
ANNISTON       SUNNY     41   5  22 N10       30.42F
BIRMINGHAM     SUNNY     42   7  23 N13       30.44F
CHATTANOOGA    SUNNY     37   2  22 NE8       30.43F WCI  31
DALTON         SUNNY     36  10  35 NW12G21   30.41F WCI  27
GADSDEN        SUNNY     39   9  29 N8        30.44F WCI  33
GOLDEN TRNGL   SUNNY     45  14  29 NE7       30.47F
HALEYVILLE     FAIR      37   8  30 N8G17     30.46F WCI  31
JACKSON TN     SUNNY     32   7  35 NE10      30.54F WCI  24
MEMPHIS        MOSUNNY   37   6  27 NE12      30.52F WCI  29
NASHVILLE      MOSUNNY   30   1  29 N5        30.52F WCI  25
OXFORD MS      FAIR      39   3  22 NE8G16    30.50F WCI  34
ROME           SUNNY     40   6  24 NW13G21   30.40F WCI  32
SAVANNAH       SUNNY     32   7  34 N12       30.51F WCI  23
TUPELO         SUNNY     39   8  27 N13       30.49F WCI  31
TUSCALOOSA     SUNNY     45   8  22 N6        30.46F
$$

...GULF COAST WEATHER...

CITY           SKY/WX    TMP DP  RH WIND       PRES   REMARKS
GULFPORT       SUNNY     60  29  30 NE10      30.37F
PASCAGOULA     SUNNY     59  29  31 N9G18     30.38F
MOBILE         SUNNY     58  27  30 N10       30.38F
GULF SHORES    CLEAR     57  28  33 N9        30.37F
PENSACOLA      SUNNY     58  20  22 N13G23    30.36F
DESTIN         SUNNY     60  19  20 N12G20    30.35F
PANAMA CITY    SUNNY     60  21  21 N8        30.33F
APPALACHICOLA  SUNNY     62  24  23 N12       30.32F
$$




USA.gov is the U.S. government's official web portal to all federal, state and local government web resources and services.